Location: Borbetomagus
(49.6328°N, 8.3592°E)
Time: 00:35:17
(UTC+00:00)

Cosmos 1933 - Pass Details

Date: 19 May 2025
Orbit: 516 x 524 km, 82.5° (Epoch: 15 June)

Event Time Altitude Azimuth Distance (km) Brightness Sun altitude
Rises 19:57:11 0° 181° (S) 2,642 6.4 -6.8°
Reaches altitude 10° 19:59:19 10° 179° (S) 1,758 5.5 -7.1°
Maximum altitude 20:03:08 67° 97° (E) 571 3.2 -7.5°
Drops below altitude 10° 20:07:00 10° 15° (NNE) 1,768 6.3 -8.0°
Sets 20:09:09 0° 13° (NNE) 2,660 7.3 -8.2°
